sat.trackr.live / text

‹ back to catalog

STARLINK-30363

NORAD 57744 · 2023-131N

PAYLOAD ACTIVE UNKNOWN

§ Identity

Operator
Country
US
Launch date
2023-09-01
Launch site
AFETR
Launch vehicle
Mass (kg)
RCS (m²)

Purposes: comms

External: N2YO · Heavens-Above · Gunter

§ Orbital elements

Epoch: 2026-09-20T01:29:16.136448Z

Period
94.27 min
Inclination
43.0032°
Eccentricity
0.0001586
Mean motion
15.27575880 rev/d
Perigee alt
482.0 km
Apogee alt
484.1 km
Semi-major
6,861.2 km
B*
1.6947e-5
RAAN
140.2352°
Arg perigee
267.0849°
Mean anomaly
92.9821°
Rev number
16,981

§ Raw data

STARLINK-303631 57744U 23131N   26263.06199232  .00000204  00000+0  16947-4 0  99942 57744  43.0032 140.2352 0001586 267.0849  92.9821 15.27575880169818

JSON: /api/v1/satellites/57744 · /tle

For live sub-satellite position, see the globe view (requires WebGL).

§ Visibility from observer

Set your observer location to see the next 7 days of passes ≥ 10°. The values pass through the URL so the page stays shareable.

No JS? Fill the form by hand. The geolocation button needs JavaScript.